• In Uzbekistan
  • List of Countries
  • For 7 days
  • Water Temperature
  • Satellite Maps
  • Weather Map
  • Weather Widgets
  • user-avatar
    Login

    Hourly Weather Idzhewan

    Today, 25 April, Tuesday

    Time Temperature Precipitation Wind Pressure Humidity
    00:00 +6°C° 0 mm 1 mps 693 mmHg 82%
    01:00 +6°C° 0 mm 1 mps 693 mmHg 82%
    02:00 +6°C° 0 mm 1 mps 693 mmHg 83%
    03:00 +5°C° 0 mm 2 mps 693 mmHg 82%
    04:00 +5°C° 0 mm 2 mps 693 mmHg 81%
    05:00 +5°C° 0 mm 2 mps 694 mmHg 80%
    06:00 +6°C° 0 mm 1 mps 694 mmHg 80%
    07:00 +7°C° 0 mm 2 mps 694 mmHg 72%
    08:00 +8°C° 0 mm 2 mps 695 mmHg 64%
    09:00 +10°C° 0 mm 2 mps 695 mmHg 57%
    10:00 +12°C° 0.1 mm 2 mps 695 mmHg 55%
    11:00 +11°C° 0.1 mm 3 mps 695 mmHg 53%
    12:00 +12°C° 0.1 mm 3 mps 695 mmHg 52%
    13:00 +12°C° 0.1 mm 3 mps 695 mmHg 52%
    14:00 +11°C° 0.1 mm 3 mps 695 mmHg 52%
    15:00 +11°C° 0.1 mm 3 mps 695 mmHg 53%
    16:00 +12°C° 0 mm 2 mps 696 mmHg 56%
    17:00 +10°C° 0 mm 2 mps 696 mmHg 60%
    18:00 +9°C° 0 mm 2 mps 697 mmHg 63%
    19:00 +7°C° 0 mm 2 mps 697 mmHg 67%
    20:00 +6°C° 0 mm 1 mps 698 mmHg 71%
    21:00 +5°C° 0 mm 1 mps 698 mmHg 75%
    22:00 +4°C° 0 mm 1 mps 699 mmHg 76%
    23:00 +4°C° 0 mm 1 mps 699 mmHg 77%

    Tomorrow, 26 April, Wednesday

    Time Temperature Precipitation Wind Pressure Humidity
    00:00 +4°C° 0 mm 1 mps 699 mmHg 77%
    01:00 +3°C° 0 mm 1 mps 699 mmHg 77%
    02:00 +3°C° 0 mm 1 mps 700 mmHg 77%
    03:00 +3°C° 0 mm 1 mps 700 mmHg 77%
    04:00 +3°C° 0 mm 1 mps 700 mmHg 75%
    05:00 +4°C° 0 mm 1 mps 700 mmHg 74%
    06:00 +4°C° 0 mm 1 mps 701 mmHg 72%
    07:00 +6°C° 0 mm 1 mps 701 mmHg 64%
    08:00 +8°C° 0 mm 1 mps 701 mmHg 56%
    09:00 +9°C° 0 mm 2 mps 701 mmHg 48%
    10:00 +10°C° 0 mm 2 mps 701 mmHg 48%
    11:00 +11°C° 0 mm 3 mps 701 mmHg 48%
    12:00 +12°C° 0 mm 3 mps 700 mmHg 48%
    13:00 +12°C° 0 mm 3 mps 700 mmHg 51%
    14:00 +12°C° 0 mm 3 mps 700 mmHg 54%
    15:00 +12°C° 0 mm 3 mps 699 mmHg 57%
    16:00 +12°C° 0 mm 2 mps 699 mmHg 61%
    17:00 +10°C° 0 mm 2 mps 699 mmHg 66%
    18:00 +9°C° 0 mm 2 mps 700 mmHg 70%
    19:00 +9°C° 0 mm 1 mps 700 mmHg 76%
    20:00 +7°C° 0 mm 1 mps 700 mmHg 82%
    21:00 +6°C° 0 mm 1 mps 701 mmHg 87%
    22:00 +5°C° 0 mm 1 mps 701 mmHg 89%
    23:00 +5°C° 0 mm 1 mps 701 mmHg 90%

    Day after tomorrow, 27 April, Thursday

    Time Temperature Precipitation Wind Pressure Humidity
    00:00 +4°C° 0 mm 1 mps 701 mmHg 92%
    01:00 +4°C° 0 mm 1 mps 701 mmHg 92%
    02:00 +3°C° 0 mm 0 mps 701 mmHg 93%
    03:00 +2°C° 0 mm 0 mps 700 mmHg 93%
    04:00 +3°C° 0 mm 0 mps 701 mmHg 91%
    05:00 +4°C° 0 mm 0 mps 701 mmHg 88%
    06:00 +4°C° 0 mm 0 mps 701 mmHg 86%
    07:00 +7°C° 0 mm 1 mps 701 mmHg 77%
    08:00 +9°C° 0 mm 1 mps 700 mmHg 67%
    09:00 +10°C° 0 mm 2 mps 700 mmHg 58%
    10:00 +12°C° 0 mm 2 mps 700 mmHg 55%
    11:00 +13°C° 0 mm 2 mps 700 mmHg 52%
    12:00 +13°C° 0 mm 3 mps 699 mmHg 49%
    13:00 +14°C° 0 mm 3 mps 699 mmHg 50%
    14:00 +14°C° 0 mm 3 mps 699 mmHg 51%
    15:00 +14°C° 0 mm 3 mps 698 mmHg 52%
    16:00 +14°C° 0 mm 2 mps 698 mmHg 58%
    17:00 +13°C° 0 mm 2 mps 698 mmHg 64%
    18:00 +12°C° 0 mm 2 mps 698 mmHg 70%
    19:00 +10°C° 0 mm 1 mps 699 mmHg 76%
    20:00 +8°C° 0 mm 1 mps 699 mmHg 82%
    21:00 +6°C° 0 mm 1 mps 700 mmHg 88%
    22:00 +6°C° 0 mm 1 mps 700 mmHg 87%
    23:00 +6°C° 0 mm 1 mps 700 mmHg 87%

    28 April, Friday

    Time Temperature Precipitation Wind Pressure Humidity
    00:00 +6°C° 0 mm 1 mps 700 mmHg 86%
    01:00 +5°C° 0 mm 0 mps 700 mmHg 87%
    02:00 +4°C° 0 mm 0 mps 699 mmHg 88%
    03:00 +4°C° 0 mm 0 mps 699 mmHg 90%
    04:00 +4°C° 0 mm 0 mps 699 mmHg 87%
    05:00 +5°C° 0 mm 0 mps 699 mmHg 85%
    06:00 +6°C° 0 mm 0 mps 699 mmHg 83%
    07:00 +9°C° 0 mm 1 mps 699 mmHg 75%
    08:00 +11°C° 0 mm 1 mps 699 mmHg 66%
    09:00 +13°C° 0 mm 1 mps 699 mmHg 58%
    10:00 +14°C° 0 mm 2 mps 698 mmHg 56%
    11:00 +15°C° 0 mm 2 mps 698 mmHg 54%
    12:00 +17°C° 0 mm 2 mps 698 mmHg 52%
    13:00 +17°C° 0 mm 2 mps 697 mmHg 53%
    14:00 +17°C° 0 mm 2 mps 697 mmHg 54%
    15:00 +17°C° 0 mm 2 mps 696 mmHg 55%
    16:00 +16°C° 0 mm 2 mps 696 mmHg 61%
    17:00 +15°C° 0 mm 2 mps 696 mmHg 67%
    18:00 +14°C° 0 mm 1 mps 696 mmHg 73%
    19:00 +12°C° 0 mm 1 mps 696 mmHg 79%
    20:00 +11°C° 0 mm 1 mps 696 mmHg 85%
    21:00 +8°C° 0 mm 0 mps 696 mmHg 91%
    22:00 +8°C° 0.1 mm 0 mps 696 mmHg 91%
    23:00 +8°C° 0.1 mm 0 mps 696 mmHg 91%

    29 April, Saturday

    Time Temperature Precipitation Wind Pressure Humidity
    00:00 +8°C° 0.1 mm 0 mps 696 mmHg 92%
    01:00 +8°C° 0.2 mm 0 mps 696 mmHg 92%
    02:00 +9°C° 0.2 mm 1 mps 695 mmHg 92%
    03:00 +9°C° 0.2 mm 1 mps 695 mmHg 92%
    04:00 +9°C° 0.4 mm 1 mps 695 mmHg 91%
    05:00 +10°C° 0.4 mm 1 mps 695 mmHg 90%
    06:00 +10°C° 0.4 mm 1 mps 695 mmHg 89%
    07:00 +12°C° 0.2 mm 1 mps 695 mmHg 83%
    08:00 +13°C° 0.2 mm 1 mps 695 mmHg 78%
    09:00 +15°C° 0.2 mm 1 mps 695 mmHg 72%
    10:00 +16°C° 0.1 mm 1 mps 695 mmHg 68%
    11:00 +19°C° 0.1 mm 1 mps 695 mmHg 63%
    12:00 +20°C° 0.1 mm 1 mps 694 mmHg 59%
    13:00 +20°C° 0.2 mm 1 mps 694 mmHg 59%
    14:00 +20°C° 0.2 mm 1 mps 694 mmHg 59%
    15:00 +20°C° 0.2 mm 1 mps 693 mmHg 60%
    16:00 +20°C° 0.2 mm 1 mps 693 mmHg 65%
    17:00 +19°C° 0.2 mm 1 mps 693 mmHg 71%
    18:00 +18°C° 0.2 mm 1 mps 693 mmHg 77%
    19:00 +15°C° 0.4 mm 1 mps 693 mmHg 82%
    20:00 +12°C° 0.4 mm 0 mps 694 mmHg 87%
    21:00 +10°C° 0.4 mm 0 mps 694 mmHg 92%
    22:00 +10°C° 0 mm 0 mps 694 mmHg 92%
    23:00 +10°C° 0 mm 0 mps 693 mmHg 92%

    30 April, Sunday

    Time Temperature Precipitation Wind Pressure Humidity
    00:00 +9°C° 0 mm 0 mps 693 mmHg 93%
    01:00 +9°C° 0 mm 0 mps 693 mmHg 93%
    02:00 +9°C° 0 mm 0 mps 693 mmHg 93%
    03:00 +8°C° 0 mm 0 mps 693 mmHg 93%
    04:00 +9°C° 0 mm 0 mps 693 mmHg 90%
    05:00 +10°C° 0 mm 0 mps 693 mmHg 88%
    06:00 +11°C° 0 mm 1 mps 693 mmHg 86%
    07:00 +14°C° 0 mm 1 mps 694 mmHg 76%
    08:00 +16°C° 0 mm 1 mps 694 mmHg 67%
    09:00 +20°C° 0 mm 1 mps 694 mmHg 57%
    10:00 +21°C° 0.2 mm 1 mps 694 mmHg 54%
    11:00 +22°C° 0.2 mm 1 mps 694 mmHg 52%
    12:00 +23°C° 0.2 mm 1 mps 693 mmHg 49%
    13:00 +23°C° 0.5 mm 1 mps 693 mmHg 49%
    14:00 +24°C° 0.5 mm 1 mps 693 mmHg 48%
    15:00 +24°C° 0.5 mm 1 mps 692 mmHg 48%
    16:00 +23°C° 0.5 mm 1 mps 692 mmHg 55%
    17:00 +21°C° 0.5 mm 1 mps 692 mmHg 62%
    18:00 +20°C° 0.5 mm 1 mps 692 mmHg 69%
    19:00 +18°C° 0.4 mm 1 mps 692 mmHg 73%
    20:00 +15°C° 0.4 mm 1 mps 692 mmHg 78%
    21:00 +12°C° 0.4 mm 1 mps 692 mmHg 82%
    22:00 +12°C° 0.3 mm 1 mps 692 mmHg 83%
    23:00 +11°C° 0.3 mm 1 mps 692 mmHg 84%
    Show more